sat.trackr.live / text

‹ back to catalog

SES-11 (ECHOSTAR 105)

NORAD 42967 · 2017-063A

PAYLOAD ACTIVE UNKNOWN

§ Identity

Operator
Country
SES
Launch date
2017-10-11
Launch site
AFETR
Launch vehicle
Mass (kg)
RCS (m²)

Purposes: comms

External: N2YO · Heavens-Above · Gunter

§ Orbital elements

Epoch: 2026-05-25T04:33:56.511360Z

Period
1,436.10 min
Inclination
0.0210°
Eccentricity
0.0002775
Mean motion
1.00271574 rev/d
Perigee alt
35,775.0 km
Apogee alt
35,798.4 km
Semi-major
42,164.8 km
B*
0.0000e+0
RAAN
9.4931°
Arg perigee
47.5495°
Mean anomaly
149.2733°
Rev number
3,149

§ Raw data

SES-11 (ECHOSTAR 105)1 42967U 17063A   26145.19023740 -.00000091  00000+0  00000+0 0  99982 42967   0.0210   9.4931 0002775  47.5495 149.2733  1.00271574 31497

JSON: /api/v1/satellites/42967 · /tle

For live sub-satellite position, see the globe view (requires WebGL).

§ Visibility from observer

Set your observer location to see the next 7 days of passes ≥ 10°. The values pass through the URL so the page stays shareable.

No JS? Fill the form by hand. The geolocation button needs JavaScript.